Time,TemperatureF,DewpointF,PressureIn,WindDirection,WindDirectionDegrees,WindSpeedMPH,WindSpeedGustMPH,Humidity,HourlyPrecipIn,Conditions,Clouds,dailyrainin,SoftwareType,DateUTC
2013-02-18 00:00:00,38.0,35.0,29.87,ESE,113,0.0,0.0,89,0.00,,,0.00,WUHU216HW,2013-02-18 08:00:00,
2013-02-18 00:05:00,38.2,35.2,29.87,ESE,113,0.0,0.0,89,0.00,,,0.00,WUHU216HW,2013-02-18 08:05:00,
2013-02-18 00:10:00,38.2,35.2,29.87,ESE,113,0.0,0.0,89,0.00,,,0.00,WUHU216HW,2013-02-18 08:10:00,
2013-02-18 00:15:00,38.2,35.2,29.87,ESE,113,0.0,0.0,89,0.00,,,0.00,WUHU216HW,2013-02-18 08:15:00,
2013-02-18 00:20:00,38.2,35.2,29.87,ESE,113,0.0,0.0,89,0.00,,,0.00,WUHU216HW,2013-02-18 08:20:00,
2013-02-18 00:25:00,38.2,35.2,29.87,ESE,113,0.0,0.0,89,0.00,,,0.00,WUHU216HW,2013-02-18 08:25:00,
2013-02-18 00:30:00,38.2,35.2,29.87,ESE,113,0.0,0.0,89,0.00,,,0.00,WUHU216HW,2013-02-18 08:30:00,
2013-02-18 00:35:00,38.2,35.2,29.86,ESE,113,0.0,0.0,89,0.00,,,0.00,WUHU216HW,2013-02-18 08:35:00,
2013-02-18 00:40:00,38.2,35.2,29.86,ESE,113,0.0,0.0,89,0.00,,,0.00,WUHU216HW,2013-02-18 08:40:00,
2013-02-18 00:45:00,38.2,35.2,29.86,ESE,113,0.0,0.0,89,0.00,,,0.00,WUHU216HW,2013-02-18 08:45:00,
2013-02-18 00:50:00,38.2,35.2,29.86,ESE,113,0.0,0.0,89,0.00,,,0.00,WUHU216HW,2013-02-18 08:50:00,
2013-02-18 00:55:00,38.2,35.2,29.86,ESE,113,0.0,0.0,89,0.00,,,0.00,WUHU216HW,2013-02-18 08:55:00,
2013-02-18 01:00:00,38.0,35.0,29.86,ESE,113,0.0,0.0,89,0.00,,,0.00,WUHU216HW,2013-02-18 09:00:00,
2013-02-18 01:05:00,38.0,35.0,29.85,ESE,113,0.0,0.0,89,0.00,,,0.00,WUHU216HW,2013-02-18 09:05:00,
2013-02-18 01:10:00,38.0,35.0,29.85,ESE,113,0.0,0.0,89,0.00,,,0.00,WUHU216HW,2013-02-18 09:10:00,
2013-02-18 01:15:00,38.0,35.0,29.85,ESE,113,0.0,0.0,89,0.00,,,0.00,WUHU216HW,2013-02-18 09:15:00,
2013-02-18 01:20:00,38.0,35.0,29.85,ESE,113,0.0,0.0,89,0.00,,,0.00,WUHU216HW,2013-02-18 09:20:00,
2013-02-18 01:25:00,37.8,34.8,29.85,ESE,113,0.0,0.0,89,0.00,,,0.00,WUHU216HW,2013-02-18 09:25:00,
2013-02-18 01:30:00,38.0,35.0,29.84,ESE,113,0.0,0.0,89,0.00,,,0.00,WUHU216HW,2013-02-18 09:30:00,
2013-02-18 01:35:00,37.8,34.8,29.84,ESE,113,0.0,0.0,89,0.00,,,0.00,WUHU216HW,2013-02-18 09:35:00,
2013-02-18 01:40:00,37.8,34.8,29.84,ESE,113,0.0,0.0,89,0.00,,,0.00,WUHU216HW,2013-02-18 09:40:00,
2013-02-18 01:45:00,37.8,34.8,29.84,ESE,113,0.0,0.0,89,0.00,,,0.00,WUHU216HW,2013-02-18 09:45:00,
2013-02-18 01:50:00,37.8,34.8,29.84,ESE,113,0.0,0.0,89,0.00,,,0.00,WUHU216HW,2013-02-18 09:50:00,
2013-02-18 01:55:00,37.8,34.8,29.84,ESE,113,0.0,0.0,89,0.00,,,0.00,WUHU216HW,2013-02-18 09:55:00,
2013-02-18 02:00:00,37.8,34.8,29.84,ESE,113,0.0,0.0,89,0.00,,,0.00,WUHU216HW,2013-02-18 10:00:00,
2013-02-18 02:05:00,37.8,34.8,29.84,ESE,113,0.0,0.0,89,0.00,,,0.00,WUHU216HW,2013-02-18 10:05:00,
2013-02-18 02:10:00,37.8,34.8,29.84,ESE,113,0.0,0.0,89,0.00,,,0.00,WUHU216HW,2013-02-18 10:10:00,
2013-02-18 02:15:00,37.8,34.8,29.84,ESE,113,0.0,0.0,89,0.00,,,0.00,WUHU216HW,2013-02-18 10:15:00,
2013-02-18 02:20:00,37.8,35.1,29.84,ESE,113,0.0,0.0,90,0.00,,,0.00,WUHU216HW,2013-02-18 10:20:00,
2013-02-18 02:25:00,37.8,35.1,29.83,ESE,113,0.0,0.0,90,0.00,,,0.00,WUHU216HW,2013-02-18 10:25:00,
2013-02-18 02:30:00,37.8,35.1,29.83,ESE,113,0.0,0.0,90,0.00,,,0.00,WUHU216HW,2013-02-18 10:30:00,
2013-02-18 02:35:00,38.0,35.3,29.83,ESE,113,0.0,0.0,90,0.00,,,0.00,WUHU216HW,2013-02-18 10:35:00,
2013-02-18 02:40:00,38.0,35.3,29.83,ESE,113,0.0,0.0,90,0.00,,,0.00,WUHU216HW,2013-02-18 10:40:00,
2013-02-18 02:45:00,38.0,35.3,29.82,ESE,113,0.0,0.0,90,0.00,,,0.00,WUHU216HW,2013-02-18 10:45:00,
2013-02-18 02:50:00,38.0,35.3,29.82,ESE,113,0.0,0.0,90,0.00,,,0.00,WUHU216HW,2013-02-18 10:50:00,
2013-02-18 02:55:00,38.2,35.5,29.82,ESE,113,0.0,0.2,90,0.00,,,0.00,WUHU216HW,2013-02-18 10:55:00,
2013-02-18 03:00:00,38.0,35.3,29.82,ENE,68,0.0,0.2,90,0.00,,,0.00,WUHU216HW,2013-02-18 11:00:00,
2013-02-18 03:05:00,38.0,35.3,29.82,NNE,23,0.0,0.2,90,0.00,,,0.00,WUHU216HW,2013-02-18 11:05:00,
2013-02-18 03:10:00,38.2,35.5,29.82,ENE,68,0.0,0.2,90,0.00,,,0.00,WUHU216HW,2013-02-18 11:10:00,
2013-02-18 03:15:00,38.0,35.3,29.82,ESE,113,0.9,0.9,90,0.00,,,0.00,WUHU216HW,2013-02-18 11:15:00,
2013-02-18 03:20:00,38.0,35.3,29.82,ESE,113,0.0,0.9,90,0.00,,,0.00,WUHU216HW,2013-02-18 11:20:00,
2013-02-18 03:25:00,38.0,35.3,29.82,ESE,113,0.0,0.2,90,0.00,,,0.00,WUHU216HW,2013-02-18 11:25:00,
2013-02-18 03:30:00,38.0,35.3,29.81,ESE,113,0.0,0.4,90,0.00,,,0.00,WUHU216HW,2013-02-18 11:30:00,
2013-02-18 03:35:00,38.0,35.3,29.81,ESE,113,0.0,0.4,90,0.00,,,0.00,WUHU216HW,2013-02-18 11:35:00,
2013-02-18 03:40:00,38.2,35.5,29.81,ESE,113,0.0,0.2,90,0.00,,,0.00,WUHU216HW,2013-02-18 11:40:00,
2013-02-18 03:45:00,38.0,35.3,29.81,ESE,113,0.0,0.0,90,0.00,,,0.00,WUHU216HW,2013-02-18 11:45:00,
2013-02-18 03:50:00,38.0,35.3,29.80,ESE,113,0.0,0.0,90,0.00,,,0.00,WUHU216HW,2013-02-18 11:50:00,
2013-02-18 03:55:00,38.2,35.5,29.80,ESE,113,0.0,0.0,90,0.00,,,0.00,WUHU216HW,2013-02-18 11:55:00,
2013-02-18 04:00:00,38.2,35.5,29.80,ESE,113,0.0,0.0,90,0.00,,,0.00,WUHU216HW,2013-02-18 12:00:00,
2013-02-18 04:05:00,38.2,35.5,29.80,ESE,113,0.0,0.0,90,0.00,,,0.00,WUHU216HW,2013-02-18 12:05:00,
2013-02-18 04:10:00,38.2,35.5,29.80,ESE,113,0.0,0.0,90,0.00,,,0.00,WUHU216HW,2013-02-18 12:10:00,
2013-02-18 04:15:00,38.2,35.5,29.80,ESE,113,0.2,0.2,90,0.00,,,0.00,WUHU216HW,2013-02-18 12:15:00,
2013-02-18 04:20:00,38.0,35.3,29.80,ESE,113,0.0,0.2,90,0.00,,,0.00,WUHU216HW,2013-02-18 12:20:00,
2013-02-18 04:25:00,38.0,35.0,29.79,NNW,338,0.2,0.4,89,0.00,,,0.00,WUHU216HW,2013-02-18 12:25:00,
2013-02-18 04:30:00,38.0,35.0,29.79,ESE,113,0.2,0.4,89,0.00,,,0.00,WUHU216HW,2013-02-18 12:30:00,
2013-02-18 04:35:00,38.0,35.0,29.79,North,0,0.0,0.2,89,0.00,,,0.00,WUHU216HW,2013-02-18 12:35:00,
2013-02-18 04:40:00,38.0,35.0,29.79,North,0,0.0,0.0,89,0.00,,,0.00,WUHU216HW,2013-02-18 12:40:00,
2013-02-18 04:45:00,38.0,35.0,29.79,North,0,0.0,0.0,89,0.00,,,0.00,WUHU216HW,2013-02-18 12:45:00,
2013-02-18 04:50:00,38.0,35.0,29.79,NNE,23,0.0,0.0,89,0.00,,,0.00,WUHU216HW,2013-02-18 12:50:00,
2013-02-18 04:55:00,38.0,35.0,29.78,NNE,23,0.0,0.0,89,0.00,,,0.00,WUHU216HW,2013-02-18 12:55:00,
2013-02-18 05:00:00,38.0,35.0,29.78,NNE,23,0.0,0.0,89,0.00,,,0.00,WUHU216HW,2013-02-18 13:00:00,
2013-02-18 05:05:00,38.0,35.0,29.78,NNE,23,0.0,0.0,89,0.00,,,0.00,WUHU216HW,2013-02-18 13:05:00,
2013-02-18 05:10:00,38.0,35.0,29.78,NNE,23,0.0,0.0,89,0.00,,,0.00,WUHU216HW,2013-02-18 13:10:00,
2013-02-18 05:15:00,38.0,35.0,29.77,NNE,23,0.0,0.0,89,0.00,,,0.00,WUHU216HW,2013-02-18 13:15:00,
2013-02-18 05:21:00,38.0,35.0,29.77,NNE,23,0.0,0.0,89,0.00,,,0.00,WUHU216HW,2013-02-18 13:21:00,
2013-02-18 05:26:00,37.8,34.8,29.77,NNE,23,0.0,0.0,89,0.00,,,0.00,WUHU216HW,2013-02-18 13:26:00,
2013-02-18 05:31:00,37.8,34.8,29.77,NNE,23,0.0,0.0,89,0.00,,,0.00,WUHU216HW,2013-02-18 13:31:00,
2013-02-18 05:36:00,37.8,34.8,29.77,NNE,23,0.0,0.0,89,0.00,,,0.00,WUHU216HW,2013-02-18 13:36:00,
2013-02-18 05:41:00,37.8,35.1,29.77,NNE,23,0.0,0.0,90,0.00,,,0.00,WUHU216HW,2013-02-18 13:41:00,
2013-02-18 05:46:00,38.0,35.3,29.77,NNE,23,0.0,0.0,90,0.00,,,0.00,WUHU216HW,2013-02-18 13:46:00,
2013-02-18 05:51:00,38.0,35.3,29.77,NNE,23,0.0,0.0,90,0.00,,,0.00,WUHU216HW,2013-02-18 13:51:00,
2013-02-18 05:56:00,37.8,35.1,29.77,North,0,0.0,0.0,90,0.00,,,0.00,WUHU216HW,2013-02-18 13:56:00,
2013-02-18 06:01:00,38.0,35.3,29.76,North,0,0.0,0.0,90,0.00,,,0.00,WUHU216HW,2013-02-18 14:01:00,
2013-02-18 06:06:00,38.0,35.3,29.76,North,0,0.0,0.0,90,0.00,,,0.00,WUHU216HW,2013-02-18 14:06:00,
2013-02-18 06:11:00,38.0,35.3,29.76,ENE,68,0.0,0.0,90,0.00,,,0.00,WUHU216HW,2013-02-18 14:11:00,
2013-02-18 06:16:00,38.0,35.3,29.77,ENE,68,0.0,0.0,90,0.00,,,0.00,WUHU216HW,2013-02-18 14:16:00,
2013-02-18 06:21:00,37.8,35.1,29.76,ENE,68,0.2,0.2,90,0.00,,,0.00,WUHU216HW,2013-02-18 14:21:00,
2013-02-18 06:26:00,37.8,35.1,29.76,ENE,68,0.0,0.2,90,0.00,,,0.00,WUHU216HW,2013-02-18 14:26:00,
2013-02-18 06:31:00,37.8,35.1,29.76,ENE,68,0.0,0.0,90,0.00,,,0.00,WUHU216HW,2013-02-18 14:31:00,
2013-02-18 06:36:00,37.8,35.1,29.76,ENE,68,0.2,0.2,90,0.00,,,0.00,WUHU216HW,2013-02-18 14:36:00,
2013-02-18 06:41:00,37.8,35.1,29.76,ENE,68,0.0,0.4,90,0.00,,,0.00,WUHU216HW,2013-02-18 14:41:00,
2013-02-18 06:46:00,37.8,35.1,29.75,ENE,68,0.0,0.4,90,0.00,,,0.00,WUHU216HW,2013-02-18 14:46:00,
2013-02-18 06:51:00,37.8,35.1,29.75,ENE,68,0.0,0.0,90,0.00,,,0.00,WUHU216HW,2013-02-18 14:51:00,
2013-02-18 06:56:00,37.8,35.1,29.76,East,90,0.9,0.9,90,0.00,,,0.00,WUHU216HW,2013-02-18 14:56:00,
2013-02-18 07:01:00,37.8,35.1,29.76,East,90,0.0,0.9,90,0.00,,,0.00,WUHU216HW,2013-02-18 15:01:00,
2013-02-18 07:06:00,37.8,35.1,29.75,East,90,0.0,0.7,90,0.00,,,0.00,WUHU216HW,2013-02-18 15:06:00,
2013-02-18 07:11:00,37.8,35.1,29.75,East,90,0.9,0.9,90,0.00,,,0.00,WUHU216HW,2013-02-18 15:11:00,
2013-02-18 07:16:00,37.8,35.1,29.75,East,90,0.0,0.9,90,0.00,,,0.00,WUHU216HW,2013-02-18 15:16:00,
2013-02-18 07:21:00,37.8,35.1,29.75,East,90,0.0,0.0,90,0.00,,,0.00,WUHU216HW,2013-02-18 15:21:00,
2013-02-18 07:26:00,37.8,35.1,29.75,East,90,0.0,0.0,90,0.00,,,0.00,WUHU216HW,2013-02-18 15:26:00,
2013-02-18 07:31:00,37.8,35.1,29.75,East,90,0.0,0.0,90,0.00,,,0.00,WUHU216HW,2013-02-18 15:31:00,
2013-02-18 07:36:00,37.8,35.1,29.75,East,90,0.0,0.0,90,0.00,,,0.00,WUHU216HW,2013-02-18 15:36:00,
2013-02-18 07:41:00,38.0,35.3,29.75,East,90,0.4,0.4,90,0.00,,,0.00,WUHU216HW,2013-02-18 15:41:00,
2013-02-18 07:46:00,38.0,35.3,29.75,East,90,0.0,0.4,90,0.00,,,0.00,WUHU216HW,2013-02-18 15:46:00,
2013-02-18 07:51:00,38.2,35.5,29.75,East,90,0.0,0.0,90,0.00,,,0.00,WUHU216HW,2013-02-18 15:51:00,
2013-02-18 07:56:00,38.2,35.5,29.75,NNE,23,0.0,0.0,90,0.00,,,0.00,WUHU216HW,2013-02-18 15:56:00,
2013-02-18 08:01:00,38.2,35.5,29.75,North,0,0.0,0.4,90,0.01,,,0.01,WUHU216HW,2013-02-18 16:01:00,
2013-02-18 08:06:00,38.2,35.5,29.75,NE,45,0.0,0.4,90,0.01,,,0.01,WUHU216HW,2013-02-18 16:06:00,
2013-02-18 08:11:00,38.2,35.5,29.74,ESE,113,0.7,0.7,90,0.01,,,0.01,WUHU216HW,2013-02-18 16:11:00,
2013-02-18 08:16:00,38.3,35.6,29.74,ESE,113,0.4,0.7,90,0.01,,,0.01,WUHU216HW,2013-02-18 16:16:00,
2013-02-18 08:21:00,38.3,35.6,29.74,ESE,113,0.0,0.4,90,0.01,,,0.01,WUHU216HW,2013-02-18 16:21:00,
2013-02-18 08:26:00,38.5,35.8,29.74,East,90,0.0,0.4,90,0.01,,,0.01,WUHU216HW,2013-02-18 16:26:00,
2013-02-18 08:31:00,38.5,35.8,29.74,ESE,113,0.0,0.4,90,0.01,,,0.01,WUHU216HW,2013-02-18 16:31:00,
2013-02-18 08:36:00,38.5,35.8,29.74,NE,45,0.0,0.0,90,0.01,,,0.01,WUHU216HW,2013-02-18 16:36:00,
2013-02-18 08:41:00,38.9,36.2,29.73,ESE,113,1.1,1.1,90,0.01,,,0.01,WUHU216HW,2013-02-18 16:41:00,
2013-02-18 08:46:00,38.9,36.2,29.73,ESE,113,0.0,1.1,90,0.01,,,0.01,WUHU216HW,2013-02-18 16:46:00,
2013-02-18 08:51:00,39.1,36.4,29.73,ESE,113,0.0,0.9,90,0.01,,,0.01,WUHU216HW,2013-02-18 16:51:00,
2013-02-18 08:56:00,39.1,36.4,29.73,ESE,113,0.0,0.7,90,0.00,,,0.01,WUHU216HW,2013-02-18 16:56:00,
2013-02-18 09:01:00,39.2,36.5,29.73,East,90,0.7,0.9,90,0.00,,,0.01,WUHU216HW,2013-02-18 17:01:00,
2013-02-18 09:06:00,39.2,36.5,29.73,ESE,113,1.1,1.6,90,0.00,,,0.01,WUHU216HW,2013-02-18 17:06:00,
2013-02-18 09:11:00,39.4,36.7,29.73,East,90,0.4,1.6,90,0.00,,,0.01,WUHU216HW,2013-02-18 17:11:00,
2013-02-18 09:16:00,39.4,36.7,29.73,NW,315,0.7,0.9,90,0.00,,,0.01,WUHU216HW,2013-02-18 17:16:00,
2013-02-18 09:21:00,39.6,36.9,29.73,East,90,1.1,1.1,90,0.00,,,0.01,WUHU216HW,2013-02-18 17:21:00,
2013-02-18 09:26:00,39.8,37.1,29.73,ENE,68,0.4,1.1,90,0.00,,,0.01,WUHU216HW,2013-02-18 17:26:00,
2013-02-18 09:31:00,40.0,37.0,29.73,SE,135,1.1,1.1,89,0.00,,,0.01,WUHU216HW,2013-02-18 17:31:00,
2013-02-18 09:37:00,40.0,37.0,29.73,ESE,113,0.3,1.1,89,0.00,,,0.01,WUHU216HW,2013-02-18 17:37:00,
2013-02-18 09:42:00,40.0,37.0,29.73,ESE,113,1.3,1.6,89,0.00,,,0.01,WUHU216HW,2013-02-18 17:42:00,
2013-02-18 09:47:00,40.0,37.0,29.73,ESE,113,0.4,1.6,89,0.00,,,0.01,WUHU216HW,2013-02-18 17:47:00,
2013-02-18 09:52:00,40.0,37.0,29.72,North,0,0.0,0.7,89,0.00,,,0.01,WUHU216HW,2013-02-18 17:52:00,
2013-02-18 09:57:00,40.1,37.2,29.72,NNE,23,0.0,0.4,89,0.00,,,0.01,WUHU216HW,2013-02-18 17:57:00,
2013-02-18 10:02:00,40.3,37.4,29.72,ESE,113,1.1,1.1,89,0.00,,,0.01,WUHU216HW,2013-02-18 18:02:00,
2013-02-18 10:07:00,40.3,37.4,29.72,NNE,23,0.0,1.1,89,0.00,,,0.01,WUHU216HW,2013-02-18 18:07:00,
2013-02-18 10:12:00,40.5,37.5,29.72,ESE,113,1.1,1.1,89,0.00,,,0.01,WUHU216HW,2013-02-18 18:12:00,
2013-02-18 10:17:00,40.7,37.7,29.72,ESE,113,0.2,1.1,89,0.00,,,0.01,WUHU216HW,2013-02-18 18:17:00,
2013-02-18 10:22:00,40.9,37.9,29.72,NNW,338,0.2,0.4,89,0.00,,,0.01,WUHU216HW,2013-02-18 18:22:00,
2013-02-18 10:27:00,41.0,38.1,29.72,SE,135,1.8,2.2,89,0.00,,,0.01,WUHU216HW,2013-02-18 18:27:00,
2013-02-18 10:32:00,40.9,37.9,29.72,ESE,113,0.2,2.2,89,0.00,,,0.01,WUHU216HW,2013-02-18 18:32:00,
2013-02-18 10:37:00,41.0,38.1,29.72,East,90,2.0,2.0,89,0.00,,,0.01,WUHU216HW,2013-02-18 18:37:00,
2013-02-18 10:42:00,41.0,37.7,29.72,North,0,0.0,3.4,88,0.00,,,0.01,WUHU216HW,2013-02-18 18:42:00,
2013-02-18 10:47:00,40.9,37.9,29.72,ESE,113,0.4,3.4,89,0.00,,,0.01,WUHU216HW,2013-02-18 18:47:00,
2013-02-18 10:52:00,41.0,38.1,29.72,East,90,0.0,2.5,89,0.00,,,0.01,WUHU216HW,2013-02-18 18:52:00,
2013-02-18 10:57:00,41.4,38.1,29.72,East,90,0.0,2.5,88,0.00,,,0.01,WUHU216HW,2013-02-18 18:57:00,
2013-02-18 11:02:00,41.4,38.1,29.71,North,0,0.2,0.2,88,0.00,,,0.01,WUHU216HW,2013-02-18 19:02:00,
2013-02-18 11:07:00,41.4,38.1,29.72,ESE,113,1.3,1.3,88,0.00,,,0.01,WUHU216HW,2013-02-18 19:07:00,
2013-02-18 11:12:00,41.2,37.9,29.71,ESE,113,0.4,1.3,88,0.00,,,0.01,WUHU216HW,2013-02-18 19:12:00,
2013-02-18 11:17:00,41.4,38.1,29.71,ESE,113,0.7,1.3,88,0.00,,,0.01,WUHU216HW,2013-02-18 19:17:00,
2013-02-18 11:22:00,41.6,38.3,29.71,East,90,0.0,0.9,88,0.00,,,0.01,WUHU216HW,2013-02-18 19:22:00,
2013-02-18 11:27:00,41.8,38.4,29.71,NW,322,0.3,0.9,88,0.00,,,0.01,WUHU216HW,2013-02-18 19:27:00,
2013-02-18 11:32:00,41.9,38.6,29.70,NW,315,0.4,0.7,88,0.00,,,0.01,WUHU216HW,2013-02-18 19:32:00,
2013-02-18 11:37:00,41.9,38.4,29.70,North,0,0.0,1.3,87,0.00,,,0.01,WUHU216HW,2013-02-18 19:37:00,
2013-02-18 11:42:00,42.1,38.5,29.70,ESE,113,1.1,1.3,87,0.00,,,0.01,WUHU216HW,2013-02-18 19:42:00,
2013-02-18 11:47:00,42.3,38.7,29.70,NNW,338,0.4,1.1,87,0.00,,,0.01,WUHU216HW,2013-02-18 19:47:00,
2013-02-18 11:52:00,42.5,38.9,29.69,North,0,0.0,0.9,87,0.00,,,0.01,WUHU216HW,2013-02-18 19:52:00,
2013-02-18 11:57:00,42.5,38.9,29.69,ESE,113,0.2,0.9,87,0.00,,,0.01,WUHU216HW,2013-02-18 19:57:00,
2013-02-18 12:02:00,42.7,39.1,29.69,NNE,23,0.7,0.9,87,0.00,,,0.01,WUHU216HW,2013-02-18 20:02:00,
2013-02-18 12:07:00,42.8,39.3,29.69,NNW,338,0.4,0.7,87,0.00,,,0.01,WUHU216HW,2013-02-18 20:07:00,
2013-02-18 12:12:00,43.2,39.2,29.69,North,354,0.6,0.9,86,0.00,,,0.01,WUHU216HW,2013-02-18 20:12:00,
2013-02-18 12:17:00,43.2,39.2,29.68,NNW,338,1.6,1.6,86,0.00,,,0.01,WUHU216HW,2013-02-18 20:17:00,
2013-02-18 12:22:00,43.4,39.8,29.68,ESE,113,0.4,1.6,87,0.00,,,0.01,WUHU216HW,2013-02-18 20:22:00,
2013-02-18 12:27:00,43.6,40.0,29.68,East,90,0.7,2.5,87,0.00,,,0.01,WUHU216HW,2013-02-18 20:27:00,
2013-02-18 12:32:00,43.6,40.0,29.68,ENE,68,0.0,2.5,87,0.00,,,0.01,WUHU216HW,2013-02-18 20:32:00,
2013-02-18 12:37:00,43.9,40.3,29.68,ESE,113,2.0,2.0,87,0.00,,,0.01,WUHU216HW,2013-02-18 20:37:00,
2013-02-18 12:42:00,44.3,40.3,29.67,ESE,113,0.6,3.1,86,0.00,,,0.01,WUHU216HW,2013-02-18 20:42:00,
2013-02-18 12:47:00,44.3,40.3,29.67,ESE,113,1.1,3.1,86,0.00,,,0.01,WUHU216HW,2013-02-18 20:47:00,
2013-02-18 12:52:00,44.5,40.2,29.67,ESE,113,0.7,1.8,85,0.00,,,0.01,WUHU216HW,2013-02-18 20:52:00,
2013-02-18 12:57:00,44.8,40.6,29.67,North,0,0.0,2.0,85,0.00,,,0.01,WUHU216HW,2013-02-18 20:57:00,
2013-02-18 13:02:00,45.0,40.8,29.66,ESE,113,1.6,2.0,85,0.00,,,0.01,WUHU216HW,2013-02-18 21:02:00,
2013-02-18 13:07:00,45.4,41.1,29.66,ESE,113,2.3,2.9,85,0.00,,,0.01,WUHU216HW,2013-02-18 21:07:00,
2013-02-18 13:12:00,45.7,41.2,29.66,NE,45,0.0,2.9,84,0.00,,,0.01,WUHU216HW,2013-02-18 21:12:00,
2013-02-18 13:17:00,46.1,41.6,29.66,East,90,0.6,1.1,84,0.00,,,0.01,WUHU216HW,2013-02-18 21:17:00,
2013-02-18 13:22:00,46.4,41.6,29.66,ESE,113,0.2,1.8,83,0.00,,,0.01,WUHU216HW,2013-02-18 21:22:00,
2013-02-18 13:27:00,46.8,42.0,29.65,NW,316,0.3,1.8,83,0.00,,,0.01,WUHU216HW,2013-02-18 21:27:00,
2013-02-18 13:32:00,46.8,41.6,29.65,ESE,113,0.9,2.2,82,0.00,,,0.01,WUHU216HW,2013-02-18 21:32:00,
2013-02-18 13:37:00,46.6,41.1,29.65,East,90,0.4,2.2,81,0.00,,,0.01,WUHU216HW,2013-02-18 21:37:00,
2013-02-18 13:42:00,46.4,41.0,29.65,East,90,1.3,2.0,81,0.00,,,0.01,WUHU216HW,2013-02-18 21:42:00,
2013-02-18 13:47:00,46.4,40.7,29.65,ESE,102,1.7,4.0,80,0.00,,,0.01,WUHU216HW,2013-02-18 21:47:00,
2013-02-18 13:52:00,46.3,40.5,29.64,SE,125,1.2,4.0,80,0.00,,,0.01,WUHU216HW,2013-02-18 21:52:00,
2013-02-18 13:57:00,46.4,40.3,29.64,SW,221,1.0,2.5,79,0.00,,,0.01,WUHU216HW,2013-02-18 21:57:00,
2013-02-18 14:02:00,46.4,40.0,29.64,SSW,195,0.3,1.8,78,0.00,,,0.01,WUHU216HW,2013-02-18 22:02:00,
2013-02-18 14:07:00,46.3,39.8,29.64,East,98,1.5,5.8,78,0.00,,,0.01,WUHU216HW,2013-02-18 22:07:00,
2013-02-18 14:12:00,46.3,39.5,29.64,ESE,120,1.5,5.8,77,0.00,,,0.01,WUHU216HW,2013-02-18 22:12:00,
2013-02-18 14:17:00,46.1,39.3,29.64,ESE,113,5.4,5.4,77,0.00,,,0.01,WUHU216HW,2013-02-18 22:17:00,
2013-02-18 14:22:00,46.1,39.3,29.64,SE,135,0.6,5.4,77,0.00,,,0.01,WUHU216HW,2013-02-18 22:22:00,
2013-02-18 14:27:00,46.3,39.8,29.64,ESE,121,1.0,3.4,78,0.00,,,0.01,WUHU216HW,2013-02-18 22:27:00,
2013-02-18 14:32:00,46.4,40.0,29.64,ESE,113,1.3,3.4,78,0.00,,,0.01,WUHU216HW,2013-02-18 22:32:00,
2013-02-18 14:37:00,46.4,40.0,29.64,East,100,0.6,1.3,78,0.00,,,0.01,WUHU216HW,2013-02-18 22:37:00,
2013-02-18 14:42:00,46.4,39.7,29.63,ENE,74,1.6,4.7,77,0.00,,,0.01,WUHU216HW,2013-02-18 22:42:00,
2013-02-18 14:47:00,46.4,39.7,29.63,SE,130,2.2,4.7,77,0.00,,,0.01,WUHU216HW,2013-02-18 22:47:00,
2013-02-18 14:52:00,46.3,39.5,29.63,ESE,113,5.4,5.4,77,0.00,,,0.01,WUHU216HW,2013-02-18 22:52:00,
2013-02-18 14:57:00,46.3,38.8,29.63,SSE,158,3.4,5.4,75,0.00,,,0.01,WUHU216HW,2013-02-18 22:57:00,
2013-02-18 15:02:00,46.1,38.6,29.63,East,85,2.4,4.3,75,0.00,,,0.01,WUHU216HW,2013-02-18 23:02:00,
2013-02-18 15:07:00,45.9,38.8,29.63,East,100,0.8,4.3,76,0.00,,,0.01,WUHU216HW,2013-02-18 23:07:00,
2013-02-18 15:12:00,45.9,38.8,29.63,East,79,1.2,1.6,76,0.00,,,0.01,WUHU216HW,2013-02-18 23:12:00,
2013-02-18 15:17:00,45.9,38.8,29.63,North,353,1.1,1.8,76,0.00,,,0.01,WUHU216HW,2013-02-18 23:17:00,
2013-02-18 15:22:00,45.9,38.4,29.62,ESE,113,4.7,4.9,75,0.00,,,0.01,WUHU216HW,2013-02-18 23:22:00,
2013-02-18 15:27:00,45.7,38.6,29.62,SE,135,0.4,4.9,76,0.00,,,0.01,WUHU216HW,2013-02-18 23:27:00,
2013-02-18 15:32:00,45.7,38.6,29.62,ESE,113,1.6,2.9,76,0.00,,,0.01,WUHU216HW,2013-02-18 23:32:00,
2013-02-18 15:37:00,45.9,38.8,29.62,NNE,23,0.0,1.6,76,0.00,,,0.01,WUHU216HW,2013-02-18 23:37:00,
2013-02-18 15:42:00,45.7,39.0,29.62,East,90,0.2,1.8,77,0.00,,,0.01,WUHU216HW,2013-02-18 23:42:00,
2013-02-18 15:47:00,45.7,39.0,29.62,East,100,0.6,1.8,77,0.00,,,0.01,WUHU216HW,2013-02-18 23:47:00,
2013-02-18 15:52:00,45.7,39.2,29.61,SE,135,1.6,2.5,78,0.00,,,0.01,WUHU216HW,2013-02-18 23:52:00,
2013-02-18 15:57:00,45.5,38.8,29.61,NW,315,2.5,2.5,77,0.00,,,0.01,WUHU216HW,2013-02-18 23:57:00,
2013-02-18 16:03:00,45.2,38.4,29.61,ENE,68,0.2,2.5,77,0.00,,,0.01,WUHU216HW,2013-02-19 00:03:00,
2013-02-18 16:08:00,45.0,38.5,29.61,East,98,0.6,1.1,78,0.00,,,0.01,WUHU216HW,2013-02-19 00:08:00,
2013-02-18 16:13:00,45.0,38.5,29.61,NW,315,1.1,1.1,78,0.00,,,0.01,WUHU216HW,2013-02-19 00:13:00,
2013-02-18 16:18:00,44.8,38.7,29.61,NNE,23,0.0,1.1,79,0.00,,,0.01,WUHU216HW,2013-02-19 00:18:00,
2013-02-18 16:23:00,44.6,38.5,29.61,East,90,0.4,0.7,79,0.00,,,0.01,WUHU216HW,2013-02-19 00:23:00,
2013-02-18 16:28:00,44.5,38.3,29.61,North,0,0.9,1.3,79,0.00,,,0.01,WUHU216HW,2013-02-19 00:28:00,
2013-02-18 16:33:00,44.3,38.5,29.61,NE,45,0.0,1.6,80,0.01,,,0.02,WUHU216HW,2013-02-19 00:33:00,
2013-02-18 16:38:00,44.3,38.8,29.61,NNW,338,0.4,1.6,81,0.01,,,0.02,WUHU216HW,2013-02-19 00:38:00,
2013-02-18 16:43:00,44.1,38.6,29.61,NNE,23,0.0,0.7,81,0.01,,,0.02,WUHU216HW,2013-02-19 00:43:00,
2013-02-18 16:48:00,43.9,38.4,29.60,North,0,0.0,0.7,81,0.01,,,0.02,WUHU216HW,2013-02-19 00:48:00,
2013-02-18 16:53:00,43.9,38.4,29.60,North,0,0.0,0.4,81,0.01,,,0.02,WUHU216HW,2013-02-19 00:53:00,
2013-02-18 16:58:00,43.7,38.3,29.60,NNE,23,0.2,0.7,81,0.01,,,0.02,WUHU216HW,2013-02-19 00:58:00,
2013-02-18 17:03:00,43.7,38.6,29.59,NE,45,0.0,0.7,82,0.01,,,0.02,WUHU216HW,2013-02-19 01:03:00,
2013-02-18 17:08:00,43.6,38.4,29.59,North,0,0.0,0.2,82,0.01,,,0.02,WUHU216HW,2013-02-19 01:08:00,
2013-02-18 17:13:00,43.4,38.3,29.59,NE,45,0.2,0.2,82,0.01,,,0.02,WUHU216HW,2013-02-19 01:13:00,
2013-02-18 17:18:00,43.2,38.1,29.59,NNE,23,0.0,0.2,82,0.01,,,0.02,WUHU216HW,2013-02-19 01:18:00,
2013-02-18 17:23:00,43.2,38.1,29.59,SE,135,0.0,0.0,82,0.01,,,0.02,WUHU216HW,2013-02-19 01:23:00,
2013-02-18 17:28:00,43.0,37.9,29.59,NNE,23,0.0,0.0,82,0.00,,,0.02,WUHU216HW,2013-02-19 01:28:00,
2013-02-18 17:33:00,42.8,37.7,29.59,NNE,23,0.0,0.0,82,0.00,,,0.02,WUHU216HW,2013-02-19 01:33:00,
2013-02-18 17:38:00,42.8,38.0,29.59,North,0,0.0,0.0,83,0.00,,,0.02,WUHU216HW,2013-02-19 01:38:00,
2013-02-18 17:43:00,42.7,37.8,29.59,NNE,23,0.0,0.0,83,0.00,,,0.02,WUHU216HW,2013-02-19 01:43:00,
2013-02-18 17:48:00,42.5,37.6,29.59,NNW,338,0.0,0.2,83,0.00,,,0.02,WUHU216HW,2013-02-19 01:48:00,
2013-02-18 17:53:00,42.5,37.6,29.59,NNE,23,0.0,0.2,83,0.00,,,0.02,WUHU216HW,2013-02-19 01:53:00,
2013-02-18 17:58:00,42.3,37.4,29.58,NNE,23,0.0,0.2,83,0.00,,,0.02,WUHU216HW,2013-02-19 01:58:00,
2013-02-18 18:03:00,42.1,37.3,29.58,NNE,23,0.0,0.2,83,0.00,,,0.02,WUHU216HW,2013-02-19 02:03:00,
2013-02-18 18:08:00,42.1,37.3,29.58,North,0,0.0,0.2,83,0.00,,,0.02,WUHU216HW,2013-02-19 02:08:00,
2013-02-18 18:13:00,41.9,37.1,29.58,North,0,0.0,0.2,83,0.00,,,0.02,WUHU216HW,2013-02-19 02:13:00,
2013-02-18 18:18:00,41.8,36.9,29.58,North,0,0.0,0.0,83,0.00,,,0.02,WUHU216HW,2013-02-19 02:18:00,
2013-02-18 18:23:00,41.8,36.9,29.57,NE,45,0.4,0.4,83,0.00,,,0.02,WUHU216HW,2013-02-19 02:23:00,
2013-02-18 18:28:00,41.6,36.7,29.57,NE,45,0.2,0.4,83,0.00,,,0.02,WUHU216HW,2013-02-19 02:28:00,
2013-02-18 18:33:00,41.4,36.5,29.57,NE,45,0.0,0.2,83,0.00,,,0.02,WUHU216HW,2013-02-19 02:33:00,
2013-02-18 18:38:00,41.4,36.5,29.57,NE,45,0.0,0.2,83,0.00,,,0.02,WUHU216HW,2013-02-19 02:38:00,
2013-02-18 18:44:00,41.2,36.7,29.57,NE,45,0.0,0.0,84,0.00,,,0.02,WUHU216HW,2013-02-19 02:44:00,
2013-02-18 18:49:00,41.0,36.6,29.57,NE,45,0.0,0.0,84,0.00,,,0.02,WUHU216HW,2013-02-19 02:49:00,
2013-02-18 18:54:00,40.9,36.4,29.57,NE,45,0.0,0.0,84,0.00,,,0.02,WUHU216HW,2013-02-19 02:54:00,
2013-02-18 18:59:00,40.9,36.4,29.57,ESE,113,0.2,0.7,84,0.00,,,0.02,WUHU216HW,2013-02-19 02:59:00,
2013-02-18 19:04:00,40.9,36.4,29.57,ENE,68,0.0,0.7,84,0.00,,,0.02,WUHU216HW,2013-02-19 03:04:00,
2013-02-18 19:09:00,40.7,36.2,29.57,NNE,23,0.0,0.0,84,0.00,,,0.02,WUHU216HW,2013-02-19 03:09:00,
2013-02-18 19:14:00,40.7,36.2,29.57,NNE,23,0.0,0.0,84,0.00,,,0.02,WUHU216HW,2013-02-19 03:14:00,
2013-02-18 19:19:00,40.7,36.2,29.57,East,90,0.9,0.9,84,0.00,,,0.02,WUHU216HW,2013-02-19 03:19:00,
2013-02-18 19:24:00,40.3,35.8,29.56,ENE,68,0.4,0.9,84,0.00,,,0.02,WUHU216HW,2013-02-19 03:24:00,
2013-02-18 19:29:00,40.3,35.8,29.56,East,90,0.0,0.4,84,0.00,,,0.02,WUHU216HW,2013-02-19 03:29:00,
2013-02-18 19:34:00,40.1,35.6,29.56,East,90,0.0,0.0,84,0.00,,,0.02,WUHU216HW,2013-02-19 03:34:00,
2013-02-18 19:39:00,40.1,35.9,29.56,North,0,0.0,1.1,85,0.00,,,0.02,WUHU216HW,2013-02-19 03:39:00,
2013-02-18 19:44:00,40.3,36.1,29.56,NW,315,0.7,1.1,85,0.00,,,0.02,WUHU216HW,2013-02-19 03:44:00,
2013-02-18 19:49:00,40.3,35.8,29.56,East,90,0.4,0.9,84,0.00,,,0.02,WUHU216HW,2013-02-19 03:49:00,
2013-02-18 19:54:00,40.3,35.8,29.56,NNW,338,0.0,0.4,84,0.00,,,0.02,WUHU216HW,2013-02-19 03:54:00,
2013-02-18 19:59:00,40.3,35.8,29.56,NNE,23,0.0,0.4,84,0.00,,,0.02,WUHU216HW,2013-02-19 03:59:00,
2013-02-18 20:04:00,40.3,35.8,29.56,North,0,0.2,0.2,84,0.00,,,0.02,WUHU216HW,2013-02-19 04:04:00,
2013-02-18 20:09:00,40.3,35.8,29.56,North,0,0.0,0.2,84,0.00,,,0.02,WUHU216HW,2013-02-19 04:09:00,
2013-02-18 20:14:00,40.3,35.8,29.56,ESE,113,0.2,0.2,84,0.00,,,0.02,WUHU216HW,2013-02-19 04:14:00,
2013-02-18 20:19:00,40.1,35.6,29.56,North,0,0.2,0.4,84,0.00,,,0.02,WUHU216HW,2013-02-19 04:19:00,
2013-02-18 20:24:00,40.3,35.8,29.56,ESE,113,0.4,0.4,84,0.00,,,0.02,WUHU216HW,2013-02-19 04:24:00,
2013-02-18 20:29:00,40.1,35.6,29.56,NNE,23,0.4,0.7,84,0.00,,,0.02,WUHU216HW,2013-02-19 04:29:00,
2013-02-18 20:34:00,40.1,35.9,29.55,North,0,0.4,0.7,85,0.00,,,0.02,WUHU216HW,2013-02-19 04:34:00,
2013-02-18 20:39:00,40.1,35.6,29.55,ESE,113,0.4,0.4,84,0.00,,,0.02,WUHU216HW,2013-02-19 04:39:00,
2013-02-18 20:44:00,40.1,35.6,29.55,North,0,0.2,0.4,84,0.00,,,0.02,WUHU216HW,2013-02-19 04:44:00,
2013-02-18 20:49:00,40.1,35.6,29.55,ESE,113,0.4,0.4,84,0.00,,,0.02,WUHU216HW,2013-02-19 04:49:00,
2013-02-18 20:54:00,40.1,35.6,29.55,ESE,113,0.0,0.7,84,0.00,,,0.02,WUHU216HW,2013-02-19 04:54:00,
2013-02-18 20:59:00,40.1,35.6,29.55,NNW,338,0.0,0.7,84,0.00,,,0.02,WUHU216HW,2013-02-19 04:59:00,
2013-02-18 21:00:00,40.0,35.5,29.55,NNE,23,0.4,0.7,84,0.00,,,0.02,WUHU216HW,2013-02-19 05:00:00,
2013-02-18 21:01:00,40.1,35.6,29.55,North,0,0.4,0.7,84,0.00,,,0.02,WUHU216HW,2013-02-19 05:01:00,
2013-02-18 21:06:00,40.0,35.5,29.55,NNE,23,0.0,0.7,84,0.00,,,0.02,WUHU216HW,2013-02-19 05:06:00,
2013-02-18 21:11:00,40.1,35.6,29.55,SE,135,0.9,0.9,84,0.00,,,0.02,WUHU216HW,2013-02-19 05:11:00,
2013-02-18 21:16:00,40.1,35.6,29.55,WNW,293,0.7,0.9,84,0.00,,,0.02,WUHU216HW,2013-02-19 05:16:00,
2013-02-18 21:21:00,40.1,35.6,29.55,NNE,23,0.0,0.7,84,0.00,,,0.02,WUHU216HW,2013-02-19 05:21:00,
2013-02-18 21:26:00,40.0,35.5,29.55,East,90,0.0,1.1,84,0.00,,,0.02,WUHU216HW,2013-02-19 05:26:00,
2013-02-18 21:31:00,40.0,35.5,29.55,East,90,1.8,1.8,84,0.00,,,0.02,WUHU216HW,2013-02-19 05:31:00,
2013-02-18 21:36:00,40.0,35.5,29.54,ESE,113,0.4,1.8,84,0.00,,,0.02,WUHU216HW,2013-02-19 05:36:00,
2013-02-18 21:41:00,39.8,35.3,29.54,NE,45,0.2,0.4,84,0.00,,,0.02,WUHU216HW,2013-02-19 05:41:00,
2013-02-18 21:46:00,39.8,35.3,29.54,East,90,2.2,2.2,84,0.00,,,0.02,WUHU216HW,2013-02-19 05:46:00,
2013-02-18 21:51:00,39.6,35.2,29.54,North,4,0.3,2.2,84,0.00,,,0.02,WUHU216HW,2013-02-19 05:51:00,
2013-02-18 21:56:00,39.6,35.2,29.54,East,90,0.4,1.1,84,0.00,,,0.02,WUHU216HW,2013-02-19 05:56:00,
2013-02-18 22:01:00,39.6,35.2,29.54,NE,45,0.2,1.1,84,0.00,,,0.02,WUHU216HW,2013-02-19 06:01:00,
2013-02-18 22:06:00,39.4,35.0,29.54,ESE,113,0.8,1.1,84,0.00,,,0.02,WUHU216HW,2013-02-19 06:06:00,
2013-02-18 22:11:00,39.4,35.0,29.54,ESE,113,0.2,1.1,84,0.00,,,0.02,WUHU216HW,2013-02-19 06:11:00,
2013-02-18 22:16:00,39.4,35.0,29.54,East,90,1.1,1.1,84,0.00,,,0.02,WUHU216HW,2013-02-19 06:16:00,
2013-02-18 22:21:00,39.2,34.8,29.54,ESE,113,1.1,1.1,84,0.00,,,0.02,WUHU216HW,2013-02-19 06:21:00,
2013-02-18 22:26:00,39.2,34.8,29.54,ESE,113,0.4,1.8,84,0.00,,,0.02,WUHU216HW,2013-02-19 06:26:00,
2013-02-18 22:31:00,39.1,34.7,29.54,ESE,113,0.0,1.8,84,0.00,,,0.02,WUHU216HW,2013-02-19 06:31:00,
2013-02-18 22:36:00,38.9,34.5,29.54,ENE,68,0.0,0.2,84,0.00,,,0.02,WUHU216HW,2013-02-19 06:36:00,
2013-02-18 22:41:00,38.9,34.7,29.54,ESE,113,0.0,0.2,85,0.00,,,0.02,WUHU216HW,2013-02-19 06:41:00,
2013-02-18 22:46:00,38.7,34.6,29.54,NNE,23,0.0,0.0,85,0.00,,,0.02,WUHU216HW,2013-02-19 06:46:00,
2013-02-18 22:51:00,38.7,34.6,29.54,ENE,75,0.3,0.7,85,0.00,,,0.02,WUHU216HW,2013-02-19 06:51:00,
2013-02-18 22:56:00,38.5,34.4,29.54,ESE,113,0.4,0.7,85,0.00,,,0.02,WUHU216HW,2013-02-19 06:56:00,
2013-02-18 23:01:00,38.3,34.2,29.54,NNE,23,0.0,0.4,85,0.00,,,0.02,WUHU216HW,2013-02-19 07:01:00,
2013-02-18 23:06:00,38.2,34.0,29.53,SE,126,0.9,1.1,85,0.00,,,0.02,WUHU216HW,2013-02-19 07:06:00,
2013-02-18 23:11:00,38.0,33.8,29.54,ESE,113,0.0,1.1,85,0.00,,,0.02,WUHU216HW,2013-02-19 07:11:00,
2013-02-18 23:16:00,37.8,33.7,29.54,ESE,113,1.1,1.1,85,0.00,,,0.02,WUHU216HW,2013-02-19 07:16:00,
2013-02-18 23:21:00,37.8,33.9,29.54,ESE,113,0.0,1.1,86,0.00,,,0.02,WUHU216HW,2013-02-19 07:21:00,
2013-02-18 23:26:00,37.6,33.8,29.53,North,0,0.4,0.4,86,0.00,,,0.02,WUHU216HW,2013-02-19 07:26:00,
2013-02-18 23:31:00,37.8,33.9,29.54,ESE,113,0.0,0.9,86,0.00,,,0.02,WUHU216HW,2013-02-19 07:31:00,
2013-02-18 23:36:00,37.8,33.9,29.54,ENE,68,0.0,0.9,86,0.00,,,0.02,WUHU216HW,2013-02-19 07:36:00,
2013-02-18 23:41:00,37.8,34.2,29.53,NNE,23,0.9,0.9,87,0.00,,,0.02,WUHU216HW,2013-02-19 07:41:00,
2013-02-18 23:46:00,38.0,34.4,29.54,NNE,23,0.0,0.9,87,0.00,,,0.02,WUHU216HW,2013-02-19 07:46:00,
2013-02-18 23:51:00,38.0,34.4,29.54,NE,45,0.0,0.4,87,0.00,,,0.02,WUHU216HW,2013-02-19 07:51:00,
2013-02-18 23:56:00,38.0,34.4,29.53,East,90,0.0,0.4,87,0.00,,,0.02,WUHU216HW,2013-02-19 07:56:00,